When you browse on this site, cookies collect data to enhance your experience and personalize the content and advertising you see.
Visit our Privacy Policy to learn more. By continuing to use the site, you agree to this use of cookies and data.
  • In Hungary
  • List of Countries
  • For 7 days
  • Water Temperature
  • Weather Map
  • News
  • Weather Widgets
  • user-avatar
    Login

    Hourly Weather Tyczek

    Today, 22 September, Sunday

    Time Temperature Precipitation Wind Pressure Humidity
    00:00 +10°C° 0 mm 3 mps 752 mmHg 96%
    01:00 +9°C° 0 mm 3 mps 752 mmHg 96%
    02:00 +9°C° 0 mm 2 mps 752 mmHg 96%
    03:00 +9°C° 0 mm 2 mps 752 mmHg 96%
    04:00 +8°C° 0 mm 2 mps 752 mmHg 97%
    05:00 +9°C° 0 mm 2 mps 752 mmHg 95%
    06:00 +10°C° 0 mm 2 mps 752 mmHg 93%
    07:00 +10°C° 0 mm 2 mps 752 mmHg 90%
    08:00 +13°C° 0 mm 2 mps 752 mmHg 81%
    09:00 +16°C° 0 mm 2 mps 752 mmHg 72%
    10:00 +18°C° 0 mm 3 mps 752 mmHg 63%
    11:00 +19°C° 0 mm 3 mps 751 mmHg 59%
    12:00 +20°C° 0 mm 3 mps 751 mmHg 55%
    13:00 +21°C° 0 mm 3 mps 751 mmHg 52%
    14:00 +21°C° 0 mm 3 mps 750 mmHg 54%
    15:00 +20°C° 0 mm 2 mps 750 mmHg 57%
    16:00 +20°C° 0 mm 2 mps 750 mmHg 60%
    17:00 +18°C° 0 mm 2 mps 750 mmHg 68%
    18:00 +16°C° 0 mm 2 mps 750 mmHg 76%
    19:00 +14°C° 0 mm 2 mps 750 mmHg 84%
    20:00 +13°C° 0 mm 2 mps 751 mmHg 87%
    21:00 +11°C° 0 mm 3 mps 751 mmHg 91%
    22:00 +11°C° 0 mm 3 mps 751 mmHg 94%
    23:00 +10°C° 0 mm 3 mps 751 mmHg 92%

    Tomorrow, 23 September, Monday

    Time Temperature Precipitation Wind Pressure Humidity
    00:00 +10°C° 0 mm 3 mps 752 mmHg 89%
    01:00 +8°C° 0 mm 4 mps 752 mmHg 87%
    02:00 +8°C° 0 mm 4 mps 752 mmHg 84%
    03:00 +8°C° 0 mm 3 mps 752 mmHg 82%
    04:00 +8°C° 0 mm 3 mps 752 mmHg 79%
    05:00 +8°C° 0 mm 4 mps 752 mmHg 77%
    06:00 +8°C° 0 mm 4 mps 752 mmHg 74%
    07:00 +10°C° 0 mm 4 mps 752 mmHg 72%
    08:00 +11°C° 0 mm 4 mps 752 mmHg 69%
    09:00 +11°C° 0 mm 4 mps 753 mmHg 66%
    10:00 +12°C° 0 mm 4 mps 753 mmHg 63%
    11:00 +13°C° 0 mm 4 mps 752 mmHg 62%
    12:00 +14°C° 0 mm 4 mps 752 mmHg 61%
    13:00 +14°C° 0 mm 4 mps 752 mmHg 59%
    14:00 +14°C° 0 mm 4 mps 752 mmHg 61%
    15:00 +14°C° 0 mm 4 mps 751 mmHg 62%
    16:00 +13°C° 0 mm 3 mps 751 mmHg 64%
    17:00 +12°C° 0 mm 3 mps 751 mmHg 69%
    18:00 +10°C° 0 mm 3 mps 752 mmHg 74%
    19:00 +9°C° 0 mm 3 mps 752 mmHg 80%
    20:00 +8°C° 0 mm 3 mps 752 mmHg 81%
    21:00 +7°C° 0 mm 3 mps 752 mmHg 82%
    22:00 +7°C° 0 mm 3 mps 752 mmHg 83%
    23:00 +7°C° 0 mm 3 mps 752 mmHg 84%

    Day after tomorrow, 24 September, Tuesday

    Time Temperature Precipitation Wind Pressure Humidity
    00:00 +6°C° 0 mm 2 mps 752 mmHg 85%
    01:00 +6°C° 0 mm 2 mps 752 mmHg 86%
    02:00 +6°C° 0 mm 2 mps 751 mmHg 86%
    03:00 +5°C° 0 mm 2 mps 751 mmHg 86%
    04:00 +5°C° 0 mm 2 mps 751 mmHg 87%
    05:00 +5°C° 0 mm 3 mps 751 mmHg 84%
    06:00 +5°C° 0 mm 3 mps 750 mmHg 81%
    07:00 +7°C° 0 mm 3 mps 750 mmHg 78%
    08:00 +9°C° 0 mm 3 mps 750 mmHg 73%
    09:00 +12°C° 0 mm 3 mps 750 mmHg 68%
    10:00 +14°C° 0 mm 3 mps 750 mmHg 64%
    11:00 +16°C° 0 mm 3 mps 750 mmHg 61%
    12:00 +17°C° 0 mm 4 mps 749 mmHg 59%
    13:00 +18°C° 0 mm 4 mps 748 mmHg 56%
    14:00 +18°C° 0 mm 3 mps 748 mmHg 58%
    15:00 +18°C° 0 mm 3 mps 748 mmHg 60%
    16:00 +18°C° 0 mm 3 mps 747 mmHg 62%
    17:00 +16°C° 0 mm 3 mps 747 mmHg 68%
    18:00 +13°C° 0 mm 3 mps 747 mmHg 75%
    19:00 +11°C° 0 mm 3 mps 747 mmHg 81%
    20:00 +11°C° 0 mm 3 mps 747 mmHg 79%
    21:00 +11°C° 0 mm 4 mps 747 mmHg 77%
    22:00 +11°C° 0 mm 4 mps 747 mmHg 76%
    23:00 +11°C° 0 mm 4 mps 746 mmHg 75%

    25 September, Wednesday

    Time Temperature Precipitation Wind Pressure Humidity
    00:00 +11°C° 0 mm 3 mps 746 mmHg 75%
    01:00 +11°C° 0 mm 3 mps 745 mmHg 74%
    02:00 +11°C° 0 mm 3 mps 745 mmHg 77%
    03:00 +10°C° 0 mm 3 mps 745 mmHg 80%
    04:00 +10°C° 0 mm 3 mps 744 mmHg 83%
    05:00 +10°C° 0.2 mm 3 mps 744 mmHg 84%
    06:00 +11°C° 0.2 mm 3 mps 744 mmHg 86%
    07:00 +11°C° 0.2 mm 3 mps 743 mmHg 87%
    08:00 +12°C° 0.2 mm 3 mps 743 mmHg 89%
    09:00 +12°C° 0.2 mm 3 mps 743 mmHg 91%
    10:00 +12°C° 0.2 mm 3 mps 743 mmHg 92%
    11:00 +13°C° 0.2 mm 3 mps 743 mmHg 90%
    12:00 +14°C° 0.2 mm 3 mps 743 mmHg 89%
    13:00 +16°C° 0.2 mm 3 mps 743 mmHg 87%
    14:00 +16°C° 0.4 mm 3 mps 743 mmHg 86%
    15:00 +16°C° 0.4 mm 3 mps 742 mmHg 85%
    16:00 +16°C° 0.4 mm 2 mps 742 mmHg 84%
    17:00 +16°C° 0.3 mm 2 mps 742 mmHg 86%
    18:00 +15°C° 0.3 mm 2 mps 742 mmHg 88%
    19:00 +14°C° 0.3 mm 2 mps 742 mmHg 90%
    20:00 +14°C° 0.1 mm 2 mps 742 mmHg 90%
    21:00 +14°C° 0.1 mm 2 mps 742 mmHg 90%
    22:00 +14°C° 0.1 mm 2 mps 742 mmHg 90%
    23:00 +14°C° 0.1 mm 2 mps 742 mmHg 92%

    26 September, Thursday

    Time Temperature Precipitation Wind Pressure Humidity
    00:00 +14°C° 0.1 mm 2 mps 742 mmHg 94%
    01:00 +13°C° 0.1 mm 2 mps 742 mmHg 95%
    02:00 +13°C° 0.2 mm 2 mps 742 mmHg 96%
    03:00 +13°C° 0.2 mm 2 mps 742 mmHg 96%
    04:00 +12°C° 0.2 mm 3 mps 742 mmHg 97%
    05:00 +12°C° 0.6 mm 3 mps 743 mmHg 96%
    06:00 +13°C° 0.6 mm 3 mps 743 mmHg 95%
    07:00 +13°C° 0.6 mm 4 mps 743 mmHg 94%
    08:00 +13°C° 1.4 mm 4 mps 743 mmHg 93%
    09:00 +13°C° 1.4 mm 4 mps 744 mmHg 92%
    10:00 +13°C° 1.4 mm 4 mps 744 mmHg 91%
    11:00 +14°C° 0.7 mm 4 mps 744 mmHg 90%
    12:00 +14°C° 0.7 mm 4 mps 744 mmHg 88%
    13:00 +14°C° 0.7 mm 4 mps 744 mmHg 87%
    14:00 +14°C° 0.2 mm 4 mps 745 mmHg 87%
    15:00 +14°C° 0.2 mm 3 mps 745 mmHg 88%
    16:00 +15°C° 0.2 mm 2 mps 745 mmHg 88%
    17:00 +13°C° 0.1 mm 3 mps 745 mmHg 91%
    18:00 +12°C° 0.1 mm 3 mps 746 mmHg 93%
    19:00 +11°C° 0.1 mm 3 mps 746 mmHg 95%
    20:00 +11°C° 0 mm 3 mps 746 mmHg 95%
    21:00 +10°C° 0 mm 2 mps 747 mmHg 96%
    22:00 +10°C° 0 mm 2 mps 747 mmHg 96%
    23:00 +9°C° 0 mm 2 mps 747 mmHg 95%

    27 September, Friday

    Time Temperature Precipitation Wind Pressure Humidity
    00:00 +9°C° 0 mm 2 mps 748 mmHg 94%
    01:00 +9°C° 0 mm 2 mps 748 mmHg 93%
    02:00 +9°C° 0 mm 2 mps 748 mmHg 92%
    03:00 +9°C° 0 mm 2 mps 748 mmHg 92%
    04:00 +9°C° 0 mm 2 mps 748 mmHg 91%
    05:00 +9°C° 0 mm 2 mps 748 mmHg 89%
    06:00 +9°C° 0 mm 2 mps 749 mmHg 87%
    07:00 +9°C° 0 mm 2 mps 749 mmHg 84%
    08:00 +9°C° 0 mm 2 mps 749 mmHg 82%
    09:00 +10°C° 0 mm 2 mps 749 mmHg 79%
    10:00 +10°C° 0 mm 2 mps 750 mmHg 76%
    11:00 +12°C° 0 mm 2 mps 750 mmHg 72%
    12:00 +13°C° 0 mm 2 mps 749 mmHg 68%
    13:00 +14°C° 0 mm 1 mps 749 mmHg 64%
    14:00 +14°C° 0 mm 1 mps 749 mmHg 65%
    15:00 +14°C° 0 mm 1 mps 749 mmHg 66%
    16:00 +14°C° 0 mm 1 mps 749 mmHg 67%
    17:00 +12°C° 0 mm 2 mps 750 mmHg 72%
    18:00 +10°C° 0 mm 2 mps 750 mmHg 76%
    19:00 +9°C° 0 mm 2 mps 750 mmHg 81%
    20:00 +8°C° 0 mm 3 mps 750 mmHg 81%
    21:00 +8°C° 0 mm 3 mps 750 mmHg 81%
    22:00 +8°C° 0 mm 3 mps 750 mmHg 81%
    23:00 +8°C° 0 mm 3 mps 750 mmHg 81%
    Show more